STARLINK-1049

Last updated on Thu Dec 12 2019 00:02:04 GMT+0000 (Coordinated Universal Time)

1 44754U 19074AT 19345.58335648 .00064693 00000-0 46162-3 0 9999 2 44754 53.0093 21.5211 0002088 20.2409 28.9136 15.73203952 4733

Satellite not in orbit